Back to catalog

USA 579

AliveMilitaryVLEO
NORAD 67491·PAYLOAD·🇺🇸 United States

Launched Jan 17, 2026 from Vandenberg Space Force Base

Loading…

Next Passes (next 24 hours)

TLE

StaleSource: Mike McCants

Epoch: Aug 3, 2026, 20:30 UTC

1 67491U 26011H   26215.85437127 0.00000000  00000-0  00000-0 0    03
2 67491  70.0130 117.3656 0002000  94.3251 265.6749 14.96713262    05

Track USA 579 in real time with AllMySat

Download on the App Store